Location: Zagreb
(45.8000°N, 16.0000°E)
Time: 14:49:50
(UTC+02:00)

Tiros 1 despin weight - Pass Details

Date: 14 August 2022
Orbit: 590 x 639 km, 48.2° (Epoch: 23 September)

Event Time Altitude Azimuth Distance (km) Brightness Sun altitude
Rises 15:34:12 0° 282° (WNW) 2,842 ? 44.9°
Reaches altitude 10° 15:36:31 10° 285° (WNW) 1,933 ? 44.6°
Maximum altitude 15:40:56 68° 8° (N) 638 ? 43.9°
Drops below altitude 10° 15:45:18 10° 93° (E) 1,917 ? 43.3°
Sets 15:47:36 0° 96° (E) 2,816 ? 42.9°
